sat.trackr.live / text

‹ back to catalog

STARLINK-2355

NORAD 47895 · 2021-021AM

PAYLOAD ACTIVE UNKNOWN

§ Identity

Operator
Country
US
Launch date
2021-03-14
Launch site
AFETR
Launch vehicle
Mass (kg)
RCS (m²)

Purposes: comms

External: N2YO · Heavens-Above · Gunter

§ Orbital elements

Epoch: 2026-05-24T16:10:06.697632Z

Period
94.01 min
Inclination
53.1591°
Eccentricity
0.0001155
Mean motion
15.31735786 rev/d
Perigee alt
469.8 km
Apogee alt
471.4 km
Semi-major
6,848.8 km
B*
3.3183e-4
RAAN
274.7547°
Arg perigee
74.2902°
Mean anomaly
285.8227°
Rev number
28,786

§ Raw data

STARLINK-23551 47895U 21021AM  26144.67368863  .00009957  00000+0  33183-3 0  99932 47895  53.1591 274.7547 0001155  74.2902 285.8227 15.31735786287862

JSON: /api/v1/satellites/47895 · /tle

For live sub-satellite position, see the globe view (requires WebGL).

§ Visibility from observer

Set your observer location to see the next 7 days of passes ≥ 10°. The values pass through the URL so the page stays shareable.

No JS? Fill the form by hand. The geolocation button needs JavaScript.